Location: Sabalos
(43.2860°N, 0.1414°E)
Time: 08:23:18
(UTC+00:00)

Cosmos 773 Rocket - Pass Details

Date: 05 July 2020
Orbit: 746 x 776 km, 74.1° (Epoch: 14 August)

Event Time Altitude Azimuth Distance (km) Brightness Sun altitude
Exits shadow 20:49:15 - 179° (S) 2,907 6.6 -10.3°
Reaches altitude 10° 20:50:49 10° 175° (S) 2,317 6.0 -10.5°
Maximum altitude 20:55:49 45° 103° (ESE) 1,047 4.4 -11.1°
Drops below altitude 10° 21:00:50 10° 32° (NNE) 2,330 6.7 -11.7°
Sets 21:03:18 0° 27° (NNE) 3,259 7.6 -12.0°
